Regional Weather Roundup
Issued by NWS

Home | Current Version | Previous Version | Text Only | Print | Product List | Glossary Off
Versions: 1 2 3 4 5 6 7 8 9 10 11 12 13 14 15 16 17 18 19 20 21 22 23 24 25 26 27 28 29 30 31 32 33 34 35 36 37 38 39 40 41 42 43 44 45 46 47 48 49 50

040
ASUS43 KDTX 241101
RWRMI
MICHIGAN HOURLY REGIONAL WEATHER ROUNDUP
NATIONAL WEATHER SERVICE DETROIT/PONTIAC MI
700 AM EDT SAT JUN 24 2017

NOTE: "FAIR" INDICATES FEW OR NO CLOUDS BELOW 12,000 FEET WITH NO
SIGNIFICANT WEATHER AND/OR OBSTRUCTION TO VISIBILITY.

MIZ047>049-052>055-059>063-066>070-074>076-081>083-241200-
SOUTHEAST LOWER MICHIGAN

CITY           SKY/WX    TMP DP  RH WIND       PRES   REMARKS
ADRIAN         CLEAR     61  55  81 NW7       29.85R
ALMA           CLEAR     58  56  92 W7        29.82R
ANN ARBOR      CLEAR     61  56  83 W9        29.82R
BAD AXE        MOSUNNY   58  55  91 CALM      29.78S
CARO           PTCLDY    55  55  99 CALM      29.78S
DETROIT CITY   CLEAR     64  55  72 W7        29.79R
DETROIT        PTCLDY    64  55  72 W12       29.81R
FLINT          CLEAR     61  55  81 W9        29.80R
GROSSE ILE     CLEAR     63  55  77 W6        29.80R
HILLSDALE      CLEAR     59  54  82 W7        29.85R
HOWELL         CLEAR     60  54  79 W7        29.81R

CITY           SKY/WX    TMP DP  RH WIND       PRES   REMARKS
JACKSON        CLEAR     60  55  83 W6        29.84R
LAMBERTVILLE   PTCLDY    61  56  82 W5        29.83R
LANSING        CLEAR     62  54  74 W8        29.82S
LAPEER         FAIR      60  55  84 NW6       29.80R
MASON          CLEAR     60  56  85 W6        29.83R
MONROE         CLEAR     61  56  83 W7        29.81R
MT. CLEMENS    CLEAR     64  56  75 W9        29.77R
PONTIAC        PTCLDY    61  56  83 W10       29.79R
PORT HOPE        N/A     60  53  77 W5        29.76R
PORT HURON     MOSUNNY   59  54  82 CALM      29.77S
TRI CITIES     CLOUDY    60  58  92 W6        29.81R
MIDLAND        MOCLDY    59  56  89 CALM      29.80R
TROY           CLEAR     64  54  70 W10       29.82R
SAGINAW HB     CLOUDY    59  54  82 W5        29.79R
$$
MIZ043>046-050>051-056>058-064>065-071>073-077>080-241200-
SOUTHWEST LOWER MICHIGAN

CITY           SKY/WX    TMP DP  RH WIND       PRES   REMARKS
BATTLE CREEK   CLEAR     59  56  89 W7        29.86R
BENTON HARBOR  CLEAR     64  55  72 NW14      29.87R
BIG RAPIDS     PTCLDY    57  52  82 NW8       29.81S
COLDWATER      CLEAR     60  56  87 W5        29.86R
FREMONT        FAIR      56  55  95 CALM      29.82S
HOLLAND        CLEAR     63  56  78 NW7       29.86R
GRAND RAPIDS   PTCLDY    61  57  87 W8        29.83S
IONIA          FAIR      60  55  82 W7        29.82S
KALAMAZOO      CLEAR     61  54  77 W7        29.87R
LUDINGTON      CLOUDY    60  56  89 NW6       29.82R
MARSHALL       CLEAR     59  56  89 W5        29.85R
MOUNT PLEASANT CLEAR     59  54  83 W3        29.80S
MUSKEGON       PTCLDY    63  56  78 W10G18    29.84R
SOUTH HAVEN    CLEAR     64  58  79 NW8       29.86R
$$
MIZ016>042-241200-
NORTHERN LOWER MICHIGAN

CITY           SKY/WX    TMP DP  RH WIND       PRES   REMARKS
ALPENA         SUNNY     56  51  84 W6        29.77R
BEAVER ISLAND  CLEAR     55  53  92 W6        29.78R
BELLAIRE       CLEAR     51  50  96 CALM      29.79R
CADILLAC       CLEAR     51  50  97 CALM      29.81R
CHARLEVOIX     CLEAR     58  56  91 W7        29.80S
FRANKFORT      PTCLDY    60  54  81 NW7       29.80S
GAYLORD        MOCLDY    54  48  80 SW3       29.79R
GRAYLING       CLEAR     54  51  91 W3        29.80R
HARBOR SPRINGS CLEAR     54  53  97 CALM      29.77S
HOUGHTON LAKE  CLEAR     60  53  77 W7        29.80R
MANISTEE       CLEAR     54  53  97 CALM      29.81R
OSCODA         SUNNY     58  52  81 W9        29.76R
PELLSTON       CLEAR     53  50  89 CALM      29.77R
ROGERS CITY    SUNNY     56  51  82 W7        29.77R
TRAVERSE CITY  PTCLDY    59  54  83 VRB3      29.78R
$$
MIZ007>008-015-241200-
EASTERN UPPER MICHIGAN

CITY           SKY/WX    TMP DP  RH WIND       PRES   REMARKS
MACKINAC ISLAN CLEAR     56  56 100 W7        29.76R
NEWBERRY       CLEAR     48  47  97 W7        29.76R
S. S. MARIE    CLOUDY    50  47  89 NW7       29.75R
MUNISING         N/A     53  49  86 NE5       29.79R
$$
MIZ004>006-011>014-085-241200-
CENTRAL UPPER MICHIGAN

CITY           SKY/WX    TMP DP  RH WIND       PRES   REMARKS
MANISTIQUE     PTCLDY    51  48  89 NW8       29.78R
ESCANABA       CLOUDY    55  50  83 VRB3      29.80R
MENOMINEE      CLOUDY    57  52  83 NW3       29.82R
SAWYER-GWINN   CLEAR     48  46  93 CALM      29.80R
$$
MIZ001>003-009>011-084-241200-
WESTERN UPPER MICHIGAN

CITY           SKY/WX    TMP DP  RH WIND       PRES   REMARKS
IRON MOUNTAIN  CLOUDY    54  49  83 W3        29.82R
HOUGHTON       CLOUDY    53  49  86 NW9       29.79R
COPPER HARBOR    N/A     55  51  86 N6        29.79R
IRONWOOD       CLOUDY    54  51  90 W12       29.86R
$$

ABBREVIATIONS USED IN REMARKS
   TC - TEMPERATURE IN CELSIUS
  WCI - WIND CHILL INDEX
   HX - HEAT INDEX
  VSB - VISIBILITY





USA.gov is the U.S. government's official web portal to all federal, state and local government web resources and services.